When you browse on this site, cookies collect data to enhance your experience and personalize the content and advertising you see.
Visit our Privacy Policy to learn more. By continuing to use the site, you agree to this use of cookies and data.
  • In Latvia
  • List of Countries
  • For 7 days
  • Water Temperature
  • Weather Map
  • Weather Widgets
  • user-avatar
    Login

    Hourly Weather Ganta

    Today, 18 January, Saturday

    Time Temperature Precipitation Wind Pressure Humidity
    00:00 +20°C° 0 mm 0 mps 724 mmHg 47%
    01:00 +19°C° 0 mm 0 mps 723 mmHg 59%
    02:00 +18°C° 0 mm 0 mps 723 mmHg 71%
    03:00 +18°C° 0 mm 0 mps 723 mmHg 76%
    04:00 +18°C° 0 mm 0 mps 723 mmHg 80%
    05:00 +17°C° 0 mm 0 mps 723 mmHg 85%
    06:00 +20°C° 0 mm 0 mps 724 mmHg 74%
    07:00 +23°C° 0 mm 0 mps 725 mmHg 64%
    08:00 +26°C° 0 mm 0 mps 726 mmHg 53%
    09:00 +31°C° 0 mm 1 mps 725 mmHg 42%
    10:00 +34°C° 0 mm 1 mps 725 mmHg 30%
    11:00 +37°C° 0 mm 1 mps 725 mmHg 18%
    12:00 +39°C° 0 mm 1 mps 724 mmHg 17%
    13:00 +39°C° 0 mm 1 mps 723 mmHg 15%
    14:00 +40°C° 0 mm 1 mps 722 mmHg 14%
    15:00 +37°C° 0 mm 1 mps 722 mmHg 17%
    16:00 +35°C° 0 mm 1 mps 722 mmHg 20%
    17:00 +31°C° 0 mm 0 mps 722 mmHg 23%
    18:00 +31°C° 0 mm 1 mps 722 mmHg 25%
    19:00 +29°C° 0 mm 1 mps 723 mmHg 27%
    20:00 +26°C° 0 mm 1 mps 723 mmHg 29%
    21:00 +25°C° 0 mm 1 mps 723 mmHg 38%
    22:00 +24°C° 0 mm 1 mps 724 mmHg 47%
    23:00 +22°C° 0 mm 1 mps 724 mmHg 56%

    Tomorrow, 19 January, Sunday

    Time Temperature Precipitation Wind Pressure Humidity
    00:00 +20°C° 0 mm 0 mps 723 mmHg 68%
    01:00 +19°C° 0 mm 0 mps 723 mmHg 80%
    02:00 +18°C° 0 mm 0 mps 723 mmHg 92%
    03:00 +19°C° 0 mm 0 mps 723 mmHg 94%
    04:00 +19°C° 0 mm 0 mps 723 mmHg 95%
    05:00 +21°C° 0 mm 1 mps 723 mmHg 97%
    06:00 +23°C° 0 mm 1 mps 723 mmHg 91%
    07:00 +24°C° 0 mm 1 mps 724 mmHg 84%
    08:00 +24°C° 0 mm 0 mps 725 mmHg 77%
    09:00 +27°C° 0 mm 0 mps 725 mmHg 62%
    10:00 +31°C° 0 mm 0 mps 724 mmHg 46%
    11:00 +35°C° 0 mm 0 mps 724 mmHg 30%
    12:00 +37°C° 0 mm 1 mps 723 mmHg 27%
    13:00 +39°C° 0 mm 1 mps 722 mmHg 24%
    14:00 +39°C° 0 mm 1 mps 721 mmHg 20%
    15:00 +37°C° 0 mm 1 mps 721 mmHg 23%
    16:00 +35°C° 0 mm 1 mps 721 mmHg 26%
    17:00 +34°C° 0 mm 1 mps 721 mmHg 29%
    18:00 +31°C° 0 mm 1 mps 721 mmHg 35%
    19:00 +26°C° 0 mm 0 mps 722 mmHg 41%
    20:00 +24°C° 0 mm 0 mps 722 mmHg 46%
    21:00 +23°C° 0 mm 0 mps 723 mmHg 56%
    22:00 +22°C° 0 mm 0 mps 723 mmHg 66%
    23:00 +23°C° 0 mm 1 mps 723 mmHg 75%

    Day after tomorrow, 20 January, Monday

    Time Temperature Precipitation Wind Pressure Humidity
    00:00 +20°C° 0 mm 0 mps 723 mmHg 82%
    01:00 +20°C° 0 mm 0 mps 722 mmHg 90%
    02:00 +20°C° 0 mm 0 mps 722 mmHg 97%
    03:00 +20°C° 0 mm 0 mps 722 mmHg 96%
    04:00 +21°C° 0 mm 0 mps 722 mmHg 95%
    05:00 +21°C° 0 mm 0 mps 722 mmHg 94%
    06:00 +25°C° 0 mm 1 mps 723 mmHg 86%
    07:00 +26°C° 0 mm 1 mps 723 mmHg 78%
    08:00 +28°C° 0 mm 1 mps 724 mmHg 70%
    09:00 +30°C° 0 mm 1 mps 724 mmHg 58%
    10:00 +33°C° 0 mm 1 mps 723 mmHg 47%
    11:00 +36°C° 0 mm 1 mps 723 mmHg 35%
    12:00 +37°C° 0 mm 1 mps 722 mmHg 32%
    13:00 +37°C° 0 mm 1 mps 722 mmHg 29%
    14:00 +39°C° 0 mm 1 mps 721 mmHg 26%
    15:00 +36°C° 0 mm 1 mps 721 mmHg 31%
    16:00 +35°C° 0 mm 1 mps 721 mmHg 35%
    17:00 +33°C° 0 mm 1 mps 721 mmHg 40%
    18:00 +31°C° 0.1 mm 1 mps 721 mmHg 52%
    19:00 +28°C° 0.1 mm 1 mps 722 mmHg 63%
    20:00 +26°C° 0.1 mm 1 mps 722 mmHg 75%
    21:00 +25°C° 0.1 mm 1 mps 723 mmHg 82%
    22:00 +24°C° 0.1 mm 1 mps 723 mmHg 90%
    23:00 +20°C° 0.1 mm 0 mps 723 mmHg 97%

    21 January, Tuesday

    Time Temperature Precipitation Wind Pressure Humidity
    00:00 +20°C° 0 mm 0 mps 723 mmHg 98%
    01:00 +20°C° 0 mm 0 mps 722 mmHg 98%
    02:00 +20°C° 0 mm 0 mps 722 mmHg 99%
    03:00 +20°C° 0 mm 0 mps 722 mmHg 99%
    04:00 +20°C° 0 mm 0 mps 722 mmHg 99%
    05:00 +20°C° 0 mm 0 mps 723 mmHg 99%
    06:00 +21°C° 0 mm 0 mps 723 mmHg 92%
    07:00 +23°C° 0 mm 0 mps 724 mmHg 86%
    08:00 +25°C° 0 mm 0 mps 724 mmHg 79%
    09:00 +28°C° 0 mm 0 mps 724 mmHg 66%
    10:00 +32°C° 0 mm 0 mps 724 mmHg 52%
    11:00 +35°C° 0 mm 0 mps 724 mmHg 39%
    12:00 +37°C° 0 mm 1 mps 723 mmHg 38%
    13:00 +36°C° 0 mm 1 mps 722 mmHg 36%
    14:00 +36°C° 0 mm 1 mps 721 mmHg 35%
    15:00 +32°C° 0 mm 0 mps 721 mmHg 39%
    16:00 +31°C° 0 mm 0 mps 721 mmHg 43%
    17:00 +30°C° 0 mm 0 mps 721 mmHg 47%
    18:00 +28°C° 0.5 mm 0 mps 722 mmHg 59%
    19:00 +27°C° 0.5 mm 1 mps 722 mmHg 70%
    20:00 +25°C° 0.5 mm 1 mps 723 mmHg 82%
    21:00 +24°C° 0.6 mm 1 mps 723 mmHg 87%
    22:00 +24°C° 0.6 mm 1 mps 723 mmHg 92%
    23:00 +23°C° 0.6 mm 1 mps 723 mmHg 98%

    22 January, Wednesday

    Time Temperature Precipitation Wind Pressure Humidity
    00:00 +21°C° 0.4 mm 0 mps 723 mmHg 98%
    01:00 +21°C° 0.4 mm 0 mps 723 mmHg 99%
    02:00 +21°C° 0.4 mm 0 mps 723 mmHg 99%
    03:00 +21°C° 0 mm 0 mps 723 mmHg 98%
    04:00 +21°C° 0 mm 0 mps 723 mmHg 98%
    05:00 +21°C° 0 mm 0 mps 723 mmHg 98%
    06:00 +22°C° 0 mm 0 mps 723 mmHg 95%
    07:00 +25°C° 0 mm 1 mps 724 mmHg 93%
    08:00 +25°C° 0 mm 1 mps 724 mmHg 90%
    09:00 +27°C° 0 mm 1 mps 724 mmHg 80%
    10:00 +29°C° 0 mm 1 mps 724 mmHg 70%
    11:00 +29°C° 0 mm 0 mps 723 mmHg 60%
    12:00 +31°C° 0 mm 0 mps 723 mmHg 52%
    13:00 +33°C° 0 mm 0 mps 722 mmHg 45%
    14:00 +35°C° 0 mm 0 mps 722 mmHg 37%
    15:00 +33°C° 0.1 mm 0 mps 721 mmHg 44%
    16:00 +33°C° 0.1 mm 1 mps 721 mmHg 51%
    17:00 +31°C° 0.1 mm 1 mps 721 mmHg 58%
    18:00 +28°C° 1 mm 1 mps 721 mmHg 69%
    19:00 +24°C° 1 mm 0 mps 722 mmHg 80%
    20:00 +22°C° 1 mm 0 mps 722 mmHg 91%
    21:00 +22°C° 0.3 mm 0 mps 723 mmHg 93%
    22:00 +22°C° 0.3 mm 0 mps 723 mmHg 94%
    23:00 +23°C° 0.3 mm 1 mps 723 mmHg 96%

    23 January, Thursday

    Time Temperature Precipitation Wind Pressure Humidity
    00:00 +21°C° 0.1 mm 0 mps 723 mmHg 97%
    01:00 +21°C° 0.1 mm 0 mps 722 mmHg 98%
    02:00 +21°C° 0.1 mm 0 mps 722 mmHg 99%
    03:00 +20°C° 0 mm 0 mps 722 mmHg 99%
    04:00 +20°C° 0 mm 0 mps 722 mmHg 99%
    05:00 +20°C° 0 mm 0 mps 722 mmHg 99%
    06:00 +21°C° 0.1 mm 0 mps 722 mmHg 95%
    07:00 +23°C° 0.1 mm 0 mps 723 mmHg 91%
    08:00 +24°C° 0.1 mm 0 mps 724 mmHg 87%
    09:00 +28°C° 0 mm 1 mps 723 mmHg 76%
    10:00 +31°C° 0 mm 1 mps 723 mmHg 64%
    11:00 +33°C° 0 mm 1 mps 723 mmHg 52%
    12:00 +34°C° 0.1 mm 1 mps 722 mmHg 48%
    13:00 +35°C° 0.1 mm 1 mps 721 mmHg 43%
    14:00 +35°C° 0.1 mm 1 mps 721 mmHg 39%
    15:00 +34°C° 0 mm 1 mps 721 mmHg 43%
    16:00 +31°C° 0 mm 0 mps 720 mmHg 48%
    17:00 +29°C° 0 mm 0 mps 720 mmHg 53%
    18:00 +30°C° 0 mm 1 mps 721 mmHg 57%
    19:00 +29°C° 0 mm 1 mps 721 mmHg 61%
    20:00 +28°C° 0 mm 1 mps 722 mmHg 65%
    21:00 +26°C° 0.5 mm 1 mps 722 mmHg 75%
    22:00 +25°C° 0.5 mm 1 mps 722 mmHg 86%
    23:00 +23°C° 0.5 mm 1 mps 722 mmHg 96%
    Show more